THORAD DELTA 1 DEB, 42620

Orbit data source: Space-Track

THORAD DELTA 1 DEB, 42620 is space debris in SSO originally from a launch on Fri, 15 Nov 1974 UTC launched from the Air Force Western Test Range (AFWTR). Debris objects in space refer to the collection of defunct objects orbiting the Earth. Examples of debris include non-operational satellites, rocket bodies, and fragments generated from explosions, collisions, or faulty payload assembly.

Loading next visibility...
Identifier
42620, 1974-089GM
Orbit
SSO
Country
Flag of USUS
Related business
Manufacturer
Unknown
Mission
Spacecraft
Bus & Motor
Unknown
Mass
Unknown
Launch date (UTC)
1974-11-15 (52 years ago)
Launch vehicle
Unknown
Launch site
Air Force Western Test Range (AFWTR)
Object type
Payload
Rocket body
Debris
Shape & HBR
Unknown shape, 1.1 m
Radar Cross Section
Medium (>0.1 m² and <1 m²)

Expand to show TLE details & history
Last TLE update: 20 hours ago

TLE from 20 hours ago
0 THORAD DELTA 1 DEB
1 42620U 74089GM  26207.32904895  .00000125  00000-0  14523-2 0  9994
2 42620 101.1285 164.6176 0148519  69.6910 292.0039 12.23245305551580
Epoch: 2026-07-26T07:53Z
TLE epoch observation values (Epoch: 2026-07-26T07:53:49.829Z)
Latitude
0.00001°
Longitude
102.13143°
Altitude
1,538.237 km
Speed
7.116 km/s
True Right ascension
10h 58m 28s
True Declination
0° 00' 00"
Sunlit
Object was in daylight at epoch
Visualization orbit readout
Latitude
Unknown
Longitude
Unknown
Altitude
Unknown
Speed
Unknown
Apparent Right ascension
Unknown
Apparent Declination
Unknown
Sunlit
N/A
Visualization observer readout
Local Sidereal Time
17:06:54
Azimuth
Unknown
Elevation
Unknown
Doppler factor
Unknown
Orbital elements
Apogee altitude
1,694.118 km
Perigee altitude
1,457.85 km
Semi-major axis
7,954.121 km
Eccentricity
0.01485
Inclination
101.1285°
RAAN
164.6176°
Arg. of periapsis
69.691°
True anomaly
290.41512°
Mean anomaly
292.0039°
Eccentric anomaly
291.21059°
Mean motion
3.05953 °/min
Orbital period
117.67 mins
BSTAR
0.0014523
Loading maneuver chart data...
Computing Atmospheric mass density...

Documentation

Showing up to 5 results
|